Asheville, NC

6:26 AM EDT on March 28, 2017 (GMT -0400)
Asheville Regional

Weather History for KAVL - October, 2009

Change the Weather History Date:

Wednesday, October 7, 2009

  Actual Average Record
Temperature  
Mean Temperature 62 °F 59 °F  
Max Temperature 71 °F 71 °F 85 °F (1951)
Min Temperature 53 °F 48 °F 27 °F (1935)
Degree Days  
Heating Degree Days 3 6  
Month to date heating degree days 50 39  
Since 1 July heating degree days 73 96  
Cooling Degree Days 0 1  
Month to date cooling degree days 0 7  
Year to date cooling degree days 770 859  
Growing Degree Days 13 (Base 50)    
Moisture  
Dew Point 54 °F    
Average Humidity 71    
Maximum Humidity 100    
Minimum Humidity 42    
Precipitation  
Precipitation T in 0.09 in 1.71 in (1976)
Month to date precipitation 0.92 0.72  
Year to date precipitation 43.13 36.14  
Snow  
Snow 0.00 in 0.00 in 0.00 in (2002)
Month to date snowfall 0.0 0.0  
Since 1 July snowfall 0.0 0.0  
Since 1 September snowfall 0.0 0.0  
Snow Depth 0.00 in    
Sea Level Pressure  
Sea Level Pressure 29.95 in    
Wind  
Wind Speed 10 mph (NNW)    
Max Wind Speed 23 mph    
Max Gust Speed 30 mph    
Visibility 10 miles    
Events Rain    
T = Trace of Precipitation, MM = Missing Value Source: NWS Daily Summary

Daily Weather History Graph

Daily Weather History Graph

Search for Another Location

Airport or City:

Trip Planner

Search our weather history database for the weather conditions in past years. The results will help you decide how hot, cold, wet, or windy it might be!

Date:

Astronomy

Oct. 07, 2009 Rise Set
Actual Time 7:29 AM EDT 7:05 PM EDT
Civil Twilight 7:04 AM EDT 7:30 PM EDT
Nautical Twilight 6:35 AM EDT 8:00 PM EDT
Astronomical Twilight 6:05 AM EDT 8:29 PM EDT
Moon 9:03 PM EDT (10/7) 11:06 AM EDT (10/7)
Length of Visible Light 12h 26m
Length of Day
11h 35m
Waning Gibbous, 87% of the Moon is Illuminated
Oct 7
Waning Gibbous
Oct 11
Last Quarter
Oct 18
New
Oct 25
First Quarter
Nov 2
Full

Hourly Weather History & Observations

Time (EDT) Temp. Dew Point Humidity Pressure Visibility Wind Dir Wind Speed Gust Speed Precip Events Conditions
12:54 AM 61.0 °F 61.0 °F 100% 29.87 in 10.0 mi South 5.8 mph - N/A   Overcast
1:17 AM 60.8 °F 60.8 °F 100% 29.93 in 10.0 mi Calm Calm - N/A   Mostly Cloudy
1:40 AM 60.8 °F 60.8 °F 100% 29.91 in 10.0 mi Calm Calm - N/A   Mostly Cloudy
1:54 AM 61.0 °F 60.1 °F 97% 29.86 in 10.0 mi South 3.5 mph - N/A   Overcast
2:54 AM 62.1 °F 61.0 °F 96% 29.83 in 10.0 mi Calm Calm - N/A   Overcast
3:20 AM 60.8 °F 60.8 °F 100% 29.90 in 10.0 mi NNW 9.2 mph - N/A   Scattered Clouds
3:54 AM 60.1 °F 60.1 °F 100% 29.84 in 10.0 mi Calm Calm - N/A   Clear
4:54 AM 60.1 °F 60.1 °F 100% 29.84 in 10.0 mi NW 6.9 mph - N/A   Clear
5:54 AM 60.1 °F 59.0 °F 96% 29.83 in 10.0 mi Calm Calm - N/A   Clear
6:54 AM 61.0 °F 60.1 °F 97% 29.87 in 10.0 mi Variable 3.5 mph - N/A   Mostly Cloudy
7:54 AM 63.0 °F 61.0 °F 93% 29.89 in 10.0 mi North 11.5 mph - N/A   Partly Cloudy
8:04 AM 62.6 °F 60.8 °F 94% 29.95 in 10.0 mi North 11.5 mph - N/A   Scattered Clouds
8:54 AM 62.1 °F 60.1 °F 93% 29.95 in 7.0 mi NNW 17.3 mph 25.3 mph 0.00 in Rain Light Rain
9:54 AM 63.0 °F 55.9 °F 78% 29.97 in 10.0 mi North 16.1 mph 23.0 mph 0.00 in   Clear
10:54 AM 64.9 °F 54.0 °F 68% 29.98 in 10.0 mi North 17.3 mph 24.2 mph N/A   Clear
11:54 AM 68.0 °F 53.1 °F 59% 29.97 in 10.0 mi North 10.4 mph 17.3 mph N/A   Clear
12:54 PM 69.1 °F 51.1 °F 53% 29.98 in 10.0 mi North 12.7 mph 19.6 mph N/A   Clear
1:54 PM 71.1 °F 50.0 °F 47% 29.97 in 10.0 mi North 10.4 mph 18.4 mph N/A   Clear
2:54 PM 70.0 °F 50.0 °F 49% 29.96 in 10.0 mi North 17.3 mph 23.0 mph N/A   Clear
3:54 PM 70.0 °F 48.0 °F 46% 29.96 in 10.0 mi North 15.0 mph 21.9 mph N/A   Clear
4:54 PM 70.0 °F 46.0 °F 42% 29.97 in 10.0 mi North 15.0 mph - N/A   Clear
5:54 PM 68.0 °F 44.1 °F 42% 29.99 in 10.0 mi NNW 16.1 mph - N/A   Clear
6:54 PM 64.0 °F 48.0 °F 56% 30.01 in 10.0 mi NNW 11.5 mph - N/A   Clear
7:54 PM 61.0 °F 46.9 °F 60% 30.03 in 10.0 mi North 11.5 mph - N/A   Clear
8:54 PM 57.0 °F 46.0 °F 67% 30.04 in 10.0 mi NNW 10.4 mph - N/A   Clear
9:54 PM 55.9 °F 45.0 °F 67% 30.06 in 10.0 mi NNW 10.4 mph - N/A   Clear
10:54 PM 55.9 °F 43.0 °F 62% 30.06 in 10.0 mi NNW 11.5 mph - N/A   Clear
11:54 PM 55.0 °F 43.0 °F 64% 30.08 in 10.0 mi North 9.2 mph - N/A   Clear